CZ-6A DEB, 56627

Orbit data source: Space-Track

CZ-6A DEB, 56627 is space debris in SSO originally from a launch on Fri, 11 Nov 2022 UTC launched from the Taiyaun Space Center, China (TSC). Debris objects in space refer to the collection of defunct objects orbiting the Earth. Examples of debris include non-operational satellites, rocket bodies, and fragments generated from explosions, collisions, or faulty payload assembly.

Loading next visibility...
Identifier
56627, 2022-151AFB
Orbit
SSO
Country
Flag of CNCN / PRC
Related business
Manufacturer
SAST
Mission
Spacecraft
Bus & Motor
Unknown
Mass
Unknown
Launch date (UTC)
2022-11-11 (4 years ago)
Launch vehicle
Unknown
Launch site
Taiyaun Space Center, China (TSC)
Object type
Payload
Rocket body
Debris
Shape & HBR
Unknown shape, 0.1 m
Radar Cross Section
Small (<0.1 m²)

Expand to show TLE details & history
Last TLE update: 6 days ago

TLE from 6 days ago
0 CZ-6A DEB
1 56627U 22151AFB 26258.48957914  .00001544  00000-0  73567-3 0  9992
2 56627  98.8252 270.5929 0037294  50.2015 310.2435 14.20428152184565
Epoch: 2026-09-15T11:44Z
TLE epoch observation values (Epoch: 2026-09-15T11:44:59.637Z)
Latitude
-0.00003°
Longitude
99.88963°
Altitude
809.52 km
Speed
7.458 km/s
True Right ascension
18h 02m 22s
True Declination
0° 00' 00"
Sunlit
Object was in daylight at epoch
Visualization orbit readout
Latitude
Unknown
Longitude
Unknown
Altitude
Unknown
Speed
Unknown
Apparent Right ascension
Unknown
Apparent Declination
Unknown
Sunlit
N/A
Visualization observer readout
Local Sidereal Time
15:13:36
Azimuth
Unknown
Elevation
Unknown
Doppler factor
Unknown
Orbital elements
Apogee altitude
847.917 km
Perigee altitude
794.22 km
Semi-major axis
7,199.206 km
Eccentricity
0.00373
Inclination
98.8252°
RAAN
270.5929°
Arg. of periapsis
50.2015°
True anomaly
309.91631°
Mean anomaly
310.2435°
Eccentric anomaly
310.08°
Mean motion
3.55317 °/min
Orbital period
101.32 mins
BSTAR
0.00073567
Loading maneuver chart data...
Computing Atmospheric mass density...
Loading historical data...
Loading historical data...
Loading historical data...
Loading historical data...
Loading historical data...
Loading historical data...
Loading historical data...

Documentation

Showing up to 5 results
|